[[{"header":{"parameterUnit":"m.s-1","parameterCategory":1,"la1":30.2991,"la2":30.254,"lo1":-89.0895,"lo2":-89.0444,"dy":0.0017,"dx":0.0017,"nx":28,"ny":28,"refTime":"2023-07-25T03:00:00:Z","depth":0,"parameterNumber":2,"parameterNumberName":"U-component_of_WINDS"},"data":[0,0,0,0,0,0,0,0,0,0,0,0,0,0,0,0,0,0,0,0,0,0,0,0,0,0,0,0,0,0,0,0,0,0,0,0,0,0,0,0,0,0,0,0,0,0,0,0,0,0,0,0,0,0,0,0,0,0,1.1559,1.156,0,1.1665,1.1666,1.1668,1.1721,1.1721,1.1721,1.1721,1.1828,1.1831,1.1833,0,0,0,0,0,0,0,0,0,0,0,0,0,1.1399,1.1402,1.1559,1.156,1.1562,1.1665,1.1666,1.1668,1.1721,1.1721,1.1721,1.1721,1.1827,1.183,1.1834,0,0,0,0,0,0,0,0,0,0,0,0,0,1.1483,1.1403,1.1559,1.16,1.1605,1.1665,1.1666,1.1668,1.1721,1.1721,1.1721,1.1721,1.1826,1.183,1.1834,1.186,0,0,1.1847,1.1849,0,0,0,0,0,0,0,0,1.1479,1.1489,1.1593,1.1598,1.1603,1.168,1.165,1.1732,1.1721,1.1677,1.1721,1.1721,1.1778,1.1787,1.1806,1.1865,1.1869,1.1848,1.185,1.1852,1.1853,0,0,0,0,0,0,0,1.1473,1.1485,1.1601,1.1594,1.1601,1.1613,1.1625,1.1665,1.1726,1.1681,1.1685,1.1697,1.1781,1.1802,1.1809,1.1871,1.1847,1.1851,1.1854,1.1855,1.1954,1.1955,0,0,0,0,0,0,1.146,1.148,1.1598,1.1604,1.154,1.1616,1.1629,1.1655,1.1726,1.1737,1.1697,1.1699,1.1795,1.1804,1.1813,1.1848,1.1852,1.1856,1.1858,1.1954,1.1954,1.1955,0,0,0,0,0,0,1.1457,1.147,1.1593,1.1543,1.156,1.1619,1.1647,1.1657,1.1678,1.1738,1.1749,1.1707,1.1795,1.1807,1.1848,1.1852,1.1858,1.1862,1.1954,1.1954,1.1954,1.1916,0,0,0,0,0,0,1.1452,1.1469,1.148,1.1543,1.1562,1.1626,1.1647,1.1659,1.1686,1.169,1.1751,1.1761,1.1796,1.1841,1.1852,1.1858,1.1865,1.1954,1.1954,1.1954,1.1917,1.1915,1.1913,0,0,0,0,0,1.1446,1.1464,1.148,1.1494,1.1577,1.1627,1.1638,1.1679,1.1686,1.1697,1.1735,1.1759,1.185,1.1845,1.1857,1.1865,1.1954,1.1954,1.1954,1.1918,1.1915,1.1913,0,0,0,0,0,0,1.14,1.1474,1.1492,1.1531,1.1572,1.1636,1.1651,1.1674,1.1714,1.1716,1.1765,1.1778,1.1814,1.1843,1.1837,1.1893,1.1904,1.1907,1.1872,1.187,1.1868,1.186,1.1868,0,0,0,0,0,1.1394,1.1429,1.1491,1.152,1.154,1.1591,1.1615,1.1643,1.1687,1.1704,1.1746,1.1787,1.1825,1.1849,1.1887,1.1921,1.1935,1.1933,1.193,1.1928,1.193,1.195,1.1949,1.1955,1.1955,1.1955,0,0,1.1383,1.1428,1.1447,1.1512,1.1547,1.1581,1.1606,1.1641,1.1667,1.171,1.1751,1.1782,1.1831,1.1869,1.1887,1.1894,1.1932,1.1929,1.1926,1.193,1.195,1.1949,1.1949,1.1955,1.1955,1.1955,0,0,1.138,1.1418,1.1446,1.148,1.1533,1.1567,1.1574,1.1634,1.1656,1.1698,1.1731,1.1761,1.1826,1.186,1.1885,1.1894,1.1917,1.1905,1.1893,1.1912,1.1911,1.1911,1.1914,1.1914,1.1906,1.1906,1.1906,0,1.1359,1.1413,1.1457,1.149,1.1518,1.1558,1.1586,1.1618,1.168,1.1697,1.1705,1.1786,1.1822,1.1868,1.187,1.1889,1.1897,1.1898,1.1908,1.1908,1.1909,1.1912,1.1913,1.1904,1.1904,1.1905,1.1905,0,1.1385,1.1421,1.1437,1.1497,1.1526,1.1556,1.1604,1.1628,1.1653,1.1686,1.1727,1.1772,1.182,1.1832,1.1857,1.1881,1.1884,1.1899,1.1911,1.1906,1.1909,1.1911,1.1902,1.1902,1.1903,1.1903,0,0,1.1357,1.144,1.1445,1.1472,1.1533,1.1562,1.1593,1.164,1.166,1.1701,1.1728,1.1781,1.1795,1.1824,1.1853,1.1869,1.1873,1.1883,1.1884,1.1879,1.1901,1.1889,1.189,1.1888,1.1889,1.1889,1.1897,0,1.1362,1.1422,1.1462,1.1506,1.1539,1.1578,1.1605,1.1645,1.1676,1.1709,1.1743,1.178,1.1796,1.1814,1.1831,1.1868,1.1878,1.1868,1.1914,1.1915,1.19,1.1892,1.188,1.1886,1.1899,1.1899,1.1899,0,1.1377,1.1418,1.1465,1.1522,1.1537,1.1561,1.1607,1.1638,1.1683,1.1705,1.1737,1.1766,1.18,1.1809,1.1856,1.1849,1.187,1.189,1.1892,1.1898,1.1907,1.1898,1.1889,1.1889,1.1902,1.1902,1.1902,0,1.1352,1.1418,1.1455,1.1477,1.1544,1.156,1.1588,1.1634,1.1659,1.1699,1.1716,1.1759,1.1782,1.1814,1.1854,1.1857,1.1897,1.1909,1.1915,1.1914,1.1922,1.1921,1.1916,1.1935,1.1935,1.1935,1.1935,0,1.1354,1.1382,1.1444,1.1467,1.1498,1.1543,1.1572,1.1604,1.1644,1.1672,1.1708,1.1734,1.1785,1.1816,1.1847,1.1882,1.1892,1.191,1.1918,1.1907,1.1904,1.1921,1.1922,1.1935,1.1935,1.1935,1.1935,0,1.1332,1.1375,1.1417,1.1477,1.1493,1.1513,1.1564,1.1586,1.1619,1.1655,1.1666,1.1717,1.1757,1.1799,1.1853,1.1873,1.1906,1.1917,1.1891,1.1895,1.1899,1.1898,1.1904,1.1907,1.1924,1.1923,1.1923,0,1.1331,1.1353,1.1414,1.1436,1.1464,1.1499,1.1525,1.1569,1.1595,1.1648,1.1664,1.1706,1.1742,1.1803,1.1844,1.1885,1.1898,1.1897,1.1904,1.1892,1.1898,1.1896,1.1898,1.1895,1.1895,1.1894,1.1894,0,1.1324,1.1344,1.1381,1.1424,1.1455,1.1491,1.1529,1.1545,1.1596,1.1623,1.1664,1.1691,1.1746,1.1787,1.1833,1.1861,1.1886,1.1891,1.1895,1.1884,1.1868,1.1876,1.1885,1.1891,1.1891,1.1892,1.1892,1.1892,1.1312,1.1333,1.138,1.1419,1.1452,1.1487,1.1511,1.1546,1.1581,1.163,1.1653,1.1694,1.1737,1.1802,1.1829,1.1861,1.1869,1.1874,1.1875,1.1876,1.1873,1.1862,1.1869,1.187,1.187,1.187,1.187,0,1.1307,1.1339,1.1375,1.1427,1.1457,1.1478,1.1521,1.1545,1.158,1.1619,1.1653,1.17,1.1739,1.1784,1.1826,1.1843,1.1855,1.1852,1.1851,1.1857,1.1864,1.1856,1.1841,1.1841,1.1841,1.1841,1.1841,1.1841,1.1308,1.1345,1.137,1.1423,1.1454,1.1495,1.1517,1.1549,1.158,1.163,1.1663,1.1692,1.1733,1.1778,1.1815,1.1827,1.1841,1.1835,1.185,1.1855,1.1857,1.1859,1.1853,1.1837,1.1837,1.1841,1.1841,1.1841]},{"header":{"parameterUnit":"m.s-1","parameterCategory":1,"la1":30.2991,"la2":30.254,"lo1":-89.0895,"lo2":-89.0444,"dy":0.0017,"dx":0.0017,"nx":28,"ny":28,"refTime":"2023-07-25T03:00:00:Z","depth":0,"parameterNumber":3,"parameterNumberName":"V-component_of_WINDS"},"data":[0,0,0,0,0,0,0,0,0,0,0,0,0,0,0,0,0,0,0,0,0,0,0,0,0,0,0,0,0,0,0,0,0,0,0,0,0,0,0,0,0,0,0,0,0,0,0,0,0,0,0,0,0,0,0,0,0,0,1.937,1.937,0,1.9303,1.9302,1.9302,1.928,1.9281,1.9281,1.9281,1.9208,1.9206,1.9204,0,0,0,0,0,0,0,0,0,0,0,0,0,1.9476,1.9474,1.937,1.937,1.9369,1.9303,1.9302,1.9302,1.928,1.9281,1.9281,1.9281,1.9209,1.9206,1.9203,0,0,0,0,0,0,0,0,0,0,0,0,0,1.9421,1.9473,1.9371,1.935,1.9348,1.9304,1.9302,1.9301,1.928,1.9281,1.9281,1.9281,1.921,1.9206,1.9203,1.9173,0,0,1.9193,1.9191,0,0,0,0,0,0,0,0,1.9424,1.9417,1.9354,1.9352,1.9349,1.9301,1.9313,1.9258,1.928,1.9306,1.9281,1.9282,1.9238,1.9232,1.9219,1.9169,1.9166,1.9192,1.919,1.9189,1.9188,0,0,0,0,0,0,0,1.9428,1.942,1.9344,1.9353,1.935,1.9343,1.9336,1.9302,1.927,1.9303,1.9302,1.9294,1.9237,1.9222,1.9217,1.9165,1.9193,1.919,1.9187,1.9186,1.9087,1.9086,0,0,0,0,0,0,1.9436,1.9423,1.9346,1.9342,1.9389,1.9341,1.9333,1.9316,1.927,1.9264,1.9294,1.9294,1.9228,1.9221,1.9214,1.9176,1.9189,1.9186,1.9184,1.9088,1.9087,1.9086,0,0,0,0,0,0,1.9438,1.9429,1.9349,1.9382,1.9371,1.9339,1.9319,1.9314,1.9299,1.9263,1.9257,1.9285,1.9228,1.9219,1.9183,1.9173,1.9184,1.9181,1.9088,1.9087,1.9086,1.9099,0,0,0,0,0,0,1.9441,1.943,1.9419,1.9382,1.937,1.932,1.9319,1.9312,1.9294,1.9293,1.9253,1.9247,1.9227,1.9189,1.918,1.9168,1.9179,1.9089,1.9088,1.9087,1.9099,1.9098,1.9098,0,0,0,0,0,1.9445,1.9425,1.9419,1.941,1.9356,1.932,1.9312,1.9292,1.9293,1.9282,1.9258,1.9248,1.9175,1.9185,1.9175,1.9163,1.909,1.9088,1.9087,1.9099,1.9099,1.9098,0,0,0,0,0,0,1.946,1.9419,1.9413,1.938,1.9354,1.9316,1.9301,1.9291,1.9263,1.9263,1.9236,1.9228,1.9194,1.9174,1.9186,1.9131,1.9132,1.9128,1.9145,1.9144,1.9143,1.9148,1.9176,0,0,0,0,0,1.946,1.9436,1.9401,1.9375,1.9362,1.9334,1.9317,1.9304,1.9275,1.9263,1.9237,1.9208,1.9179,1.916,1.9131,1.9096,1.9087,1.9082,1.9082,1.9081,1.9079,1.9058,1.9056,1.9082,1.9082,1.9082,0,0,1.9458,1.9433,1.9419,1.9377,1.9355,1.9329,1.9325,1.9297,1.9278,1.9258,1.9224,1.9204,1.917,1.9135,1.9118,1.9117,1.9069,1.9079,1.9079,1.9077,1.9057,1.9054,1.9052,1.9081,1.9081,1.9081,0,0,1.9443,1.9422,1.9398,1.9376,1.9344,1.9325,1.932,1.9284,1.927,1.9235,1.922,1.9195,1.9145,1.9122,1.9103,1.9079,1.9068,1.907,1.9066,1.9047,1.9045,1.9043,1.9034,1.9031,1.9067,1.9067,1.9067,0,1.9445,1.9407,1.9387,1.936,1.9342,1.9325,1.93,1.9279,1.9238,1.9225,1.9226,1.9163,1.9139,1.9098,1.9092,1.9077,1.9069,1.9075,1.9047,1.9045,1.9043,1.9034,1.9031,1.9068,1.9068,1.9068,1.9068,0,1.9411,1.9385,1.9369,1.9332,1.9312,1.9286,1.9261,1.9242,1.923,1.9211,1.9175,1.9145,1.911,1.9099,1.9086,1.9056,1.9057,1.9053,1.9053,1.9041,1.9032,1.9029,1.9068,1.9068,1.9068,1.9068,0,0,1.9404,1.9356,1.935,1.9333,1.9296,1.9274,1.9247,1.9214,1.9199,1.9171,1.9147,1.9105,1.9101,1.908,1.9064,1.9047,1.903,1.9045,1.9043,1.9043,1.8994,1.8998,1.8995,1.9022,1.9022,1.9021,1.8997,0,1.9383,1.9337,1.9317,1.9279,1.9254,1.9237,1.9214,1.9188,1.9169,1.9144,1.9122,1.9093,1.909,1.9077,1.9059,1.9036,1.9019,1.9037,1.8999,1.8998,1.9009,1.899,1.8994,1.8973,1.8994,1.8993,1.8993,0,1.9354,1.9328,1.9287,1.9253,1.9242,1.9222,1.919,1.9166,1.9136,1.9123,1.91,1.9085,1.9055,1.9058,1.9015,1.9028,1.9011,1.8997,1.8995,1.8991,1.8995,1.8985,1.8965,1.8962,1.8987,1.8987,1.8988,0,1.9353,1.9307,1.9277,1.9262,1.9222,1.9208,1.919,1.916,1.9141,1.9113,1.91,1.9068,1.905,1.9025,1.9001,1.9005,1.8961,1.8962,1.8949,1.895,1.894,1.8941,1.8918,1.8929,1.8929,1.8929,1.893,0,1.9332,1.9308,1.9276,1.9257,1.923,1.9207,1.9179,1.916,1.9134,1.911,1.9093,1.9071,1.9041,1.9015,1.8996,1.8963,1.8955,1.8944,1.8939,1.8945,1.8947,1.8934,1.8935,1.8929,1.8929,1.8929,1.8929,0,1.9326,1.9304,1.927,1.9235,1.9225,1.9206,1.9175,1.9156,1.9136,1.9107,1.9098,1.9067,1.9036,1.901,1.8967,1.8955,1.8921,1.8915,1.8932,1.8929,1.8918,1.892,1.8886,1.888,1.8895,1.8895,1.8895,0,1.9315,1.9297,1.926,1.9244,1.9226,1.92,1.9182,1.9158,1.9139,1.9103,1.9087,1.9055,1.9028,1.8977,1.895,1.8918,1.8911,1.8901,1.8906,1.8913,1.8911,1.8913,1.891,1.8901,1.8901,1.8901,1.8901,0,1.9298,1.9287,1.9262,1.9233,1.9211,1.9186,1.9161,1.9148,1.9119,1.9098,1.9067,1.9046,1.9003,1.8971,1.8936,1.8915,1.8903,1.89,1.8895,1.8902,1.8912,1.8906,1.8931,1.8901,1.8901,1.8901,1.8901,1.8901,1.9289,1.9271,1.9243,1.9215,1.9194,1.917,1.9151,1.9129,1.9103,1.9068,1.9055,1.9022,1.8991,1.8943,1.8923,1.8896,1.8894,1.8888,1.8886,1.8885,1.8886,1.8916,1.8889,1.8889,1.8889,1.8889,1.8889,0,1.927,1.9252,1.9226,1.9192,1.917,1.9161,1.9133,1.9114,1.9086,1.9059,1.9033,1.8996,1.8965,1.8935,1.8902,1.8886,1.8879,1.8878,1.8879,1.8874,1.8889,1.8896,1.8884,1.8884,1.8884,1.8884,1.8884,1.8884,1.9258,1.9229,1.9215,1.9175,1.9155,1.9124,1.9109,1.9087,1.9065,1.9026,1.9,1.8981,1.8953,1.8917,1.8887,1.8879,1.8868,1.8868,1.8858,1.8872,1.8873,1.8874,1.8881,1.8866,1.8866,1.8846,1.8846,1.8846]}]]